QPF
0.00 0.00 0.00 0.00 0.00 0.00 0.00 0.00 0.00 0.00 0.00 0.00 0.00 0.00 0.00 0.00 0.00 0.00 0.00 0.00 0.00 0.00 0.01 0.02 0.03 0.03 0.03 0.03 0.03 0.03 0.03 0.03 0.03 0.02 0.01 0.01 0.01 0.01 0.02 0.07 0.08 0.06 0.06
0.00 0.00 0.00 0.00 0.00 0.00 0.00 0.00 0.00 0.00 0.00 0.00 0.00 0.00 0.00 0.00 0.00 0.00 0.00 0.00 0.00 0.00 0.01 0.02 0.04 0.04 0.04 0.03 0.03 0.02 0.02 0.02 0.02 0.02 0.01 0.01 0.01 0.01 0.02 0.05 0.09 0.07 0.07
0.00 0.00 0.00 0.00 0.00 0.00 0.00 0.00 0.00 0.00 0.00 0.00 0.00 0.00 0.00 0.00 0.00 0.00 0.00 0.00 0.00 0.01 0.01 0.02 0.03 0.05 0.04 0.03 0.02 0.01 0.01 0.01 0.02 0.02 0.01 0.02 0.02 0.01 0.02 0.04 0.07 0.06 0.08
0.00 0.00 0.00 0.00 0.00 0.00 0.00 0.00 0.00 0.00 0.00 0.00 0.00 0.00 0.00 0.00 0.00 0.00 0.00 0.00 0.00 0.01 0.01 0.00 0.01 0.02 0.02 0.02 0.02 0.01 0.01 0.01 0.01 0.02 0.02 0.02 0.03 0.02 0.02 0.03 0.05 0.05 0.07
0.00 0.00 0.00 0.00 0.00 0.00 0.00 0.00 0.00 0.00 0.00 0.00 0.00 0.00 0.00 0.00 0.00 0.00 0.00 0.00 0.00 0.01 0.01 0.00 0.00 0.01 0.02 0.02 0.03 0.02 0.01 0.02 0.02 0.03 0.02 0.02 0.03 0.03 0.03 0.03 0.03 0.04 0.06
0.00 0.00 0.00 0.00 0.00 0.00 0.00 0.00 0.00 0.00 0.00 0.00 0.00 0.00 0.00 0.00 0.00 0.01 0.01 0.00 0.00 0.01 0.01 0.01 0.00 0.01 0.01 0.01 0.02 0.02 0.02 0.03 0.03 0.03 0.03 0.03 0.03 0.03 0.03 0.04 0.03 0.04 0.05
0.00 0.00 0.00 0.00 0.00 0.00 0.00 0.00 0.00 0.00 0.00 0.00 0.00 0.00 0.00 0.00 0.00 0.01 0.01 0.01 0.00 0.00 0.01 0.01 0.01 0.00 0.01 0.01 0.01 0.02 0.02 0.02 0.03 0.03 0.04 0.03 0.03 0.03 0.04 0.05 0.05 0.04 0.04
0.00 0.00 0.00 0.00 0.00 0.00 0.00 0.00 0.00 0.00 0.00 0.00 0.00 0.00 0.00 0.00 0.01 0.01 0.01 0.01 0.00 0.00 0.00 0.01 0.01 0.01 0.01 0.02 0.02 0.01 0.02 0.02 0.02 0.03 0.03 0.03 0.03 0.03 0.04 0.05 0.05 0.05 0.04
0.00 0.00 0.00 0.00 0.00 0.00 0.00 0.00 0.00 0.00 0.00 0.00 0.00 0.00 0.00 0.00 0.01 0.01 0.02 0.01 0.01 0.00 0.01 0.01 0.01 0.01 0.02 0.02 0.02 0.02 0.02 0.03 0.04 0.05 0.05 0.05 0.05 0.05 0.05 0.06 0.07 0.07 0.07
0.00 0.00 0.00 0.00 0.00 0.00 0.00 0.00 0.00 0.00 0.00 0.00 0.00 0.01 0.00 0.00 0.01 0.01 0.01 0.01 0.01 0.01 0.01 0.01 0.01 0.01 0.02 0.02 0.01 0.01 0.02 0.03 0.03 0.04 0.05 0.05 0.05 0.05 0.07 0.07 0.07 0.07 0.07
0.00 0.00 0.00 0.00 0.00 0.00 0.01 0.01 0.00 0.00 0.00 0.00 0.00 0.00 0.01 0.01 0.00 0.01 0.01 0.01 0.01 0.01 0.01 0.01 0.01 0.01 0.01 0.02 0.02 0.02 0.03 0.03 0.04 0.05 0.06 0.05 0.05 0.06 0.07 0.07 0.08 0.08 0.08
0.00 0.00 0.00 0.00 0.00 0.00 0.00 0.00 0.00 0.00 0.00 0.00 0.00 0.00 0.00 0.00 0.00 0.01 0.01 0.01 0.01 0.01 0.01 0.01 0.01 0.02 0.02 0.02 0.02 0.03 0.04 0.04 0.03 0.04 0.05 0.05 0.05 0.06 0.07 0.07 0.07 0.07 0.07
0.00 0.00 0.00 0.00 0.00 0.00 0.00 0.00 0.00 0.00 0.00 0.00 0.00 0.00 0.00 0.00 0.00 0.01 0.01 0.01 0.01 0.01 0.01 0.01 0.01 0.01 0.02 0.02 0.03 0.03 0.03 0.03 0.03 0.04 0.04 0.04 0.05 0.06 0.07 0.07 0.07 0.07 0.08
0.00 0.00 0.00 0.00 0.00 0.00 0.00 0.00 0.00 0.00 0.01 0.00 0.00 0.00 0.01 0.00 0.01 0.01 0.01 0.01 0.01 0.01 0.01 0.01 0.01 0.01 0.02 0.03 0.03 0.03 0.02 0.02 0.03 0.04 0.04 0.04 0.05 0.05 0.07 0.08 0.08 0.07 0.08
0.00 0.00 0.00 0.00 0.00 0.00 0.00 0.00 0.00 0.01 0.01 0.01 0.01 0.01 0.02 0.01 0.02 0.02 0.02 0.02 0.02 0.02 0.02 0.01 0.01 0.01 0.02 0.02 0.02 0.02 0.02 0.02 0.02 0.03 0.04 0.04 0.05 0.05 0.06 0.07 0.07 0.07 0.07
0.00 0.00 0.00 0.00 0.00 0.00 0.00 0.00 0.00 0.01 0.01 0.01 0.01 0.02 0.02 0.02 0.02 0.02 0.02 0.02 0.01 0.02 0.02 0.02 0.01 0.01 0.01 0.01 0.01 0.02 0.02 0.02 0.02 0.03 0.04 0.04 0.05 0.05 0.06 0.06 0.06 0.06 0.06
0.00 0.00 0.00 0.00 0.00 0.00 0.00 0.00 0.00 0.00 0.00 0.01 0.01 0.01 0.01 0.01 0.01 0.02 0.02 0.01 0.01 0.01 0.02 0.02 0.01 0.01 0.01 0.01 0.01 0.01 0.02 0.02 0.03 0.03 0.04 0.04 0.04 0.05 0.05 0.06 0.06 0.05 0.05
0.00 0.00 0.00 0.00 0.00 0.00 0.00 0.00 0.00 0.01 0.01 0.00 0.00 0.01 0.01 0.02 0.01 0.01 0.01 0.01 0.01 0.01 0.02 0.03 0.02 0.02 0.01 0.01 0.01 0.02 0.02 0.03 0.03 0.04 0.04 0.04 0.04 0.04 0.05 0.05 0.05 0.05 0.04
0.00 0.00 0.00 0.01 0.01 0.01 0.01 0.01 0.01 0.01 0.01 0.01 0.01 0.01 0.01 0.01 0.01 0.01 0.01 0.01 0.02 0.02 0.02 0.02 0.02 0.02 0.02 0.02 0.02 0.02 0.03 0.03 0.04 0.04 0.04 0.04 0.04 0.04 0.05 0.05 0.04 0.04 0.03
0.00 0.01 0.01 0.01 0.01 0.01 0.01 0.01 0.01 0.01 0.01 0.01 0.01 0.01 0.01 0.01 0.01 0.01 0.01 0.02 0.02 0.02 0.03 0.03 0.02 0.02 0.02 0.03 0.03 0.03 0.03 0.03 0.04 0.04 0.04 0.04 0.04 0.04 0.05 0.04 0.04 0.03 0.02
0.00 0.01 0.01 0.01 0.01 0.01 0.01 0.01 0.01 0.01 0.01 0.01 0.01 0.02 0.02 0.01 0.02 0.02 0.02 0.03 0.03 0.03 0.03 0.04 0.03 0.03 0.03 0.03 0.03 0.03 0.03 0.04 0.04 0.04 0.04 0.04 0.04 0.04 0.04 0.04 0.03 0.02 0.01
0.01 0.01 0.01 0.01 0.01 0.01 0.01 0.01 0.01 0.01 0.01 0.01 0.01 0.01 0.01 0.01 0.02 0.02 0.03 0.04 0.04 0.04 0.04 0.04 0.04 0.04 0.04 0.04 0.04 0.03 0.04 0.04 0.04 0.04 0.04 0.04 0.04 0.04 0.04 0.03 0.02 0.02 0.01
0.01 0.01 0.01 0.01 0.01 0.01 0.01 0.01 0.01 0.01 0.01 0.01 0.01 0.01 0.01 0.01 0.02 0.03 0.03 0.04 0.05 0.05 0.05 0.04 0.03 0.04 0.04 0.03 0.03 0.04 0.04 0.04 0.03 0.03 0.04 0.04 0.04 0.04 0.03 0.02 0.02 0.02 0.01
0.01 0.01 0.01 0.01 0.01 0.01 0.01 0.01 0.01 0.01 0.01 0.01 0.01 0.01 0.02 0.02 0.02 0.03 0.04 0.04 0.05 0.05 0.05 0.04 0.04 0.04 0.04 0.04 0.03 0.03 0.04 0.04 0.03 0.03 0.04 0.04 0.03 0.03 0.02 0.02 0.01 0.01 0.01
0.01 0.01 0.01 0.01 0.01 0.01 0.01 0.01 0.01 0.01 0.01 0.01 0.02 0.02 0.02 0.02 0.03 0.03 0.04 0.05 0.05 0.05 0.05 0.04 0.04 0.04 0.04 0.04 0.04 0.03 0.03 0.03 0.03 0.03 0.04 0.03 0.02 0.02 0.02 0.02 0.01 0.01 0.01
0.00 0.01 0.01 0.01 0.01 0.01 0.01 0.01 0.01 0.01 0.01 0.01 0.01 0.02 0.02 0.02 0.03 0.03 0.04 0.05 0.05 0.05 0.05 0.05 0.04 0.04 0.05 0.04 0.04 0.04 0.03 0.03 0.03 0.03 0.03 0.03 0.02 0.02 0.02 0.02 0.01 0.01 0.01
MSLP
1009.51 1010.55 1011.53 1012.45 1013.30 1014.09 1014.85 1015.58 1016.31 1017.03 1017.75 1018.44 1019.09 1019.67 1020.18 1020.61 1020.98 1021.30 1021.61 1021.91 1022.23 1022.55 1022.89 1023.20 1023.48 1023.69 1023.82 1023.85 1023.78 1023.62 1023.37 1023.05 1022.66 1022.21 1021.70 1021.13 1020.49 1019.79 1019.02 1018.19 1017.28 1016.30 1015.21
1008.93 1009.92 1010.88 1011.79 1012.65 1013.46 1014.25 1015.01 1015.77 1016.52 1017.26 1017.96 1018.62 1019.22 1019.75 1020.21 1020.61 1020.97 1021.31 1021.63 1021.95 1022.26 1022.57 1022.86 1023.10 1023.27 1023.39 1023.42 1023.37 1023.25 1023.07 1022.82 1022.51 1022.13 1021.67 1021.13 1020.50 1019.79 1019.01 1018.15 1017.21 1016.20 1015.08
1008.53 1009.43 1010.34 1011.22 1012.06 1012.88 1013.67 1014.45 1015.22 1015.99 1016.74 1017.46 1018.13 1018.75 1019.32 1019.82 1020.26 1020.67 1021.04 1021.39 1021.73 1022.04 1022.33 1022.58 1022.78 1022.92 1023.00 1023.03 1022.99 1022.91 1022.78 1022.60 1022.36 1022.05 1021.66 1021.16 1020.57 1019.87 1019.09 1018.21 1017.27 1016.25 1015.14
1008.34 1009.14 1009.96 1010.78 1011.58 1012.37 1013.14 1013.91 1014.68 1015.45 1016.20 1016.92 1017.62 1018.26 1018.86 1019.40 1019.90 1020.35 1020.77 1021.16 1021.52 1021.84 1022.11 1022.34 1022.50 1022.60 1022.66 1022.66 1022.63 1022.57 1022.48 1022.36 1022.19 1021.96 1021.63 1021.20 1020.66 1019.99 1019.23 1018.37 1017.43 1016.43 1015.35
1008.40 1009.07 1009.78 1010.50 1011.23 1011.96 1012.70 1013.44 1014.18 1014.93 1015.67 1016.39 1017.09 1017.75 1018.37 1018.95 1019.50 1020.00 1020.47 1020.89 1021.27 1021.60 1021.87 1022.07 1022.21 1022.28 1022.30 1022.29 1022.25 1022.21 1022.16 1022.09 1021.98 1021.82 1021.57 1021.21 1020.72 1020.11 1019.39 1018.56 1017.66 1016.70 1015.68
1008.72 1009.25 1009.83 1010.43 1011.07 1011.72 1012.39 1013.08 1013.78 1014.49 1015.20 1015.91 1016.60 1017.26 1017.89 1018.49 1019.05 1019.59 1020.09 1020.54 1020.95 1021.28 1021.55 1021.74 1021.85 1021.90 1021.90 1021.87 1021.83 1021.80 1021.78 1021.75 1021.71 1021.61 1021.43 1021.15 1020.73 1020.19 1019.52 1018.75 1017.91 1017.01 1016.06
1009.30 1009.68 1010.13 1010.61 1011.13 1011.69 1012.28 1012.90 1013.54 1014.20 1014.87 1015.53 1016.19 1016.82 1017.44 1018.03 1018.59 1019.13 1019.64 1020.10 1020.51 1020.86 1021.12 1021.30 1021.40 1021.44 1021.43 1021.39 1021.35 1021.34 1021.34 1021.35 1021.36 1021.33 1021.22 1021.01 1020.67 1020.20 1019.60 1018.90 1018.12 1017.29 1016.43
1010.10 1010.36 1010.67 1011.03 1011.44 1011.90 1012.40 1012.94 1013.51 1014.11 1014.72 1015.33 1015.92 1016.51 1017.07 1017.62 1018.15 1018.66 1019.15 1019.60 1020.00 1020.33 1020.59 1020.78 1020.88 1020.91 1020.90 1020.87 1020.85 1020.84 1020.87 1020.92 1020.97 1020.99 1020.95 1020.80 1020.53 1020.13 1019.61 1018.97 1018.26 1017.51 1016.73
1011.07 1011.22 1011.42 1011.67 1011.98 1012.34 1012.75 1013.22 1013.72 1014.24 1014.78 1015.31 1015.84 1016.34 1016.83 1017.30 1017.77 1018.22 1018.66 1019.07 1019.44 1019.77 1020.02 1020.20 1020.31 1020.36 1020.37 1020.36 1020.35 1020.37 1020.42 1020.50 1020.59 1020.65 1020.65 1020.57 1020.36 1020.02 1019.56 1018.99 1018.34 1017.65 1016.95
1012.11 1012.18 1012.29 1012.45 1012.67 1012.95 1013.29 1013.68 1014.12 1014.57 1015.03 1015.48 1015.91 1016.32 1016.72 1017.10 1017.47 1017.84 1018.21 1018.57 1018.91 1019.21 1019.46 1019.64 1019.77 1019.85 1019.88 1019.90 1019.93 1019.97 1020.05 1020.15 1020.27 1020.36 1020.39 1020.34 1020.18 1019.89 1019.47 1018.95 1018.36 1017.73 1017.08
1013.13 1013.14 1013.18 1013.28 1013.43 1013.65 1013.93 1014.26 1014.63 1015.01 1015.39 1015.76 1016.10 1016.41 1016.70 1016.98 1017.26 1017.54 1017.83 1018.13 1018.43 1018.70 1018.94 1019.14 1019.30 1019.40 1019.48 1019.54 1019.60 1019.68 1019.78 1019.90 1020.03 1020.14 1020.19 1020.15 1020.02 1019.75 1019.38 1018.90 1018.35 1017.76 1017.17
1014.02 1013.99 1013.99 1014.04 1014.14 1014.32 1014.55 1014.83 1015.14 1015.46 1015.77 1016.06 1016.31 1016.53 1016.72 1016.91 1017.09 1017.29 1017.51 1017.75 1018.00 1018.26 1018.50 1018.72 1018.90 1019.05 1019.17 1019.27 1019.37 1019.48 1019.61 1019.75 1019.88 1019.99 1020.04 1020.01 1019.88 1019.64 1019.28 1018.83 1018.32 1017.77 1017.23
1014.71 1014.65 1014.62 1014.63 1014.71 1014.84 1015.04 1015.27 1015.53 1015.79 1016.04 1016.25 1016.43 1016.57 1016.69 1016.79 1016.90 1017.04 1017.20 1017.40 1017.62 1017.87 1018.11 1018.35 1018.56 1018.75 1018.91 1019.07 1019.21 1019.35 1019.50 1019.65 1019.78 1019.88 1019.93 1019.89 1019.76 1019.52 1019.19 1018.77 1018.29 1017.79 1017.29
1015.12 1015.04 1015.00 1014.99 1015.05 1015.15 1015.31 1015.50 1015.71 1015.92 1016.10 1016.26 1016.37 1016.46 1016.51 1016.57 1016.63 1016.73 1016.86 1017.03 1017.24 1017.48 1017.73 1017.99 1018.23 1018.46 1018.67 1018.86 1019.04 1019.22 1019.39 1019.54 1019.67 1019.77 1019.80 1019.76 1019.63 1019.40 1019.08 1018.69 1018.26 1017.81 1017.37
1015.24 1015.16 1015.10 1015.09 1015.12 1015.20 1015.32 1015.46 1015.62 1015.78 1015.91 1016.01 1016.08 1016.13 1016.15 1016.18 1016.23 1016.31 1016.43 1016.60 1016.81 1017.05 1017.31 1017.59 1017.86 1018.12 1018.36 1018.59 1018.81 1019.01 1019.19 1019.36 1019.50 1019.59 1019.62 1019.57 1019.44 1019.23 1018.94 1018.60 1018.22 1017.84 1017.49
1015.09 1015.00 1014.95 1014.92 1014.94 1014.98 1015.06 1015.16 1015.26 1015.36 1015.45 1015.51 1015.55 1015.58 1015.60 1015.63 1015.68 1015.77 1015.90 1016.08 1016.29 1016.54 1016.82 1017.10 1017.39 1017.67 1017.94 1018.20 1018.44 1018.67 1018.88 1019.06 1019.20 1019.30 1019.33 1019.29 1019.18 1018.99 1018.75 1018.47 1018.17 1017.88 1017.61
1014.71 1014.63 1014.58 1014.55 1014.55 1014.56 1014.60 1014.65 1014.70 1014.74 1014.78 1014.81 1014.83 1014.86 1014.89 1014.94 1015.02 1015.13 1015.28 1015.47 1015.70 1015.96 1016.24 1016.52 1016.82 1017.11 1017.39 1017.67 1017.93 1018.18 1018.41 1018.61 1018.77 1018.88 1018.93 1018.91 1018.82 1018.68 1018.50 1018.29 1018.08 1017.88 1017.73
1014.16 1014.11 1014.07 1014.04 1014.02 1014.00 1014.00 1013.99 1013.99 1013.99 1013.99 1014.00 1014.01 1014.04 1014.10 1014.18 1014.29 1014.43 1014.61 1014.82 1015.06 1015.32 1015.59 1015.87 1016.15 1016.44 1016.73 1017.01 1017.29 1017.56 1017.81 1018.03 1018.21 1018.35 1018.42 1018.43 1018.39 1018.30 1018.18 1018.05 1017.93 1017.85 1017.81
1013.49 1013.46 1013.45 1013.43 1013.40 1013.36 1013.32 1013.27 1013.23 1013.19 1013.16 1013.15 1013.17 1013.21 1013.29 1013.41 1013.55 1013.73 1013.93 1014.16 1014.40 1014.65 1014.91 1015.17 1015.44 1015.71 1015.99 1016.28 1016.57 1016.86 1017.12 1017.37 1017.57 1017.73 1017.84 1017.89 1017.89 1017.85 1017.80 1017.75 1017.73 1017.75 1017.83
1012.72 1012.74 1012.75 1012.75 1012.72 1012.67 1012.61 1012.53 1012.46 1012.39 1012.35 1012.34 1012.36 1012.43 1012.54 1012.68 1012.86 1013.07 1013.28 1013.51 1013.75 1013.99 1014.22 1014.46 1014.71 1014.97 1015.24 1015.52 1015.82 1016.11 1016.40 1016.67 1016.90 1017.08 1017.21 1017.30 1017.34 1017.35 1017.36 1017.39 1017.46 1017.58 1017.76
1011.88 1011.94 1011.98 1012.00 1011.98 1011.93 1011.86 1011.78 1011.69 1011.62 1011.58 1011.58 1011.62 1011.71 1011.84 1012.02 1012.22 1012.44 1012.67 1012.90 1013.12 1013.34 1013.55 1013.77 1013.99 1014.23 1014.49 1014.78 1015.07 1015.38 1015.68 1015.97 1016.22 1016.43 1016.58 1016.69 1016.77 1016.83 1016.89 1016.98 1017.12 1017.33 1017.60
1010.94 1011.04 1011.11 1011.16 1011.16 1011.13 1011.07 1011.00 1010.92 1010.86 1010.84 1010.85 1010.92 1011.04 1011.20 1011.39 1011.62 1011.85 1012.08 1012.30 1012.51 1012.71 1012.90 1013.09 1013.30 1013.53 1013.79 1014.07 1014.37 1014.69 1015.00 1015.30 1015.57 1015.79 1015.97 1016.10 1016.20 1016.30 1016.40 1016.54 1016.74 1017.02 1017.37
1009.89 1010.02 1010.12 1010.20 1010.23 1010.23 1010.20 1010.15 1010.11 1010.08 1010.09 1010.13 1010.23 1010.37 1010.56 1010.77 1011.00 1011.24 1011.47 1011.68 1011.88 1012.06 1012.24 1012.43 1012.63 1012.86 1013.12 1013.41 1013.72 1014.05 1014.38 1014.69 1014.97 1015.20 1015.39 1015.54 1015.66 1015.78 1015.92 1016.10 1016.35 1016.68 1017.09
1008.71 1008.86 1008.99 1009.10 1009.17 1009.21 1009.22 1009.22 1009.22 1009.24 1009.29 1009.38 1009.51 1009.68 1009.88 1010.11 1010.34 1010.58 1010.80 1011.01 1011.21 1011.39 1011.57 1011.76 1011.98 1012.22 1012.49 1012.80 1013.13 1013.47 1013.81 1014.13 1014.42 1014.66 1014.86 1015.02 1015.16 1015.30 1015.47 1015.68 1015.97 1016.35 1016.82
1007.40 1007.57 1007.72 1007.87 1007.98 1008.07 1008.14 1008.20 1008.26 1008.34 1008.44 1008.57 1008.73 1008.93 1009.15 1009.38 1009.63 1009.86 1010.09 1010.30 1010.50 1010.69 1010.89 1011.10 1011.34 1011.60 1011.90 1012.23 1012.59 1012.95 1013.31 1013.64 1013.93 1014.18 1014.39 1014.56 1014.72 1014.88 1015.08 1015.33 1015.66 1016.08 1016.59
1006.00 1006.18 1006.37 1006.55 1006.71 1006.86 1006.99 1007.12 1007.25 1007.39 1007.54 1007.72 1007.92 1008.14 1008.37 1008.62 1008.86 1009.10 1009.33 1009.55 1009.77 1009.99 1010.21 1010.46 1010.73 1011.03 1011.37 1011.73 1012.11 1012.49 1012.86 1013.20 1013.51 1013.77 1013.99 1014.18 1014.35 1014.55 1014.77 1015.06 1015.43 1015.89 1016.45
Thickness
5553 5550 5547 5544 5542 5539 5536 5534 5532 5529 5527 5525 5523 5520 5517 5514 5511 5508 5504 5502 5499 5496 5493 5490 5488 5485 5483 5480 5477 5474 5470 5466 5466 5472 5469 5467 5464 5462 5461 5459 5458 5457 5457
5543 5540 5537 5534 5531 5529 5526 5524 5522 5520 5517 5515 5512 5509 5506 5503 5500 5497 5494 5492 5489 5486 5484 5481 5479 5477 5475 5472 5469 5466 5463 5459 5456 5459 5460 5458 5456 5454 5454 5452 5453 5452 5451
5531 5529 5526 5523 5521 5518 5516 5514 5512 5509 5507 5505 5502 5499 5496 5493 5490 5488 5485 5482 5479 5477 5475 5473 5471 5469 5467 5464 5462 5459 5456 5453 5449 5448 5450 5449 5448 5448 5447 5448 5448 5447 5446
5520 5518 5515 5513 5510 5508 5505 5503 5501 5499 5497 5494 5492 5488 5486 5483 5480 5478 5476 5473 5471 5469 5467 5464 5462 5460 5459 5456 5455 5452 5449 5446 5443 5441 5441 5442 5442 5441 5440 5441 5443 5442 5442
5508 5506 5504 5501 5499 5497 5495 5492 5490 5488 5486 5483 5481 5478 5475 5472 5471 5469 5467 5465 5463 5461 5458 5456 5455 5453 5451 5448 5447 5445 5442 5439 5437 5435 5435 5435 5436 5435 5434 5434 5435 5437 5438
5496 5494 5492 5489 5487 5485 5484 5481 5479 5477 5474 5472 5469 5467 5465 5463 5462 5461 5459 5456 5454 5452 5450 5448 5447 5445 5443 5442 5440 5437 5435 5433 5431 5430 5429 5429 5430 5429 5429 5429 5429 5430 5433
5483 5481 5479 5478 5476 5474 5472 5470 5467 5465 5463 5460 5458 5456 5454 5452 5452 5452 5450 5448 5445 5442 5441 5439 5439 5437 5435 5433 5433 5431 5429 5427 5426 5424 5423 5424 5424 5424 5424 5424 5424 5425 5426
5470 5469 5467 5465 5464 5462 5460 5458 5456 5453 5451 5449 5447 5445 5443 5443 5443 5442 5441 5439 5436 5434 5432 5431 5430 5429 5427 5426 5426 5425 5423 5422 5420 5419 5418 5419 5419 5419 5419 5420 5420 5421 5422
5457 5456 5454 5453 5452 5450 5448 5446 5444 5442 5440 5438 5436 5435 5433 5432 5433 5433 5432 5429 5427 5426 5424 5423 5422 5421 5420 5419 5419 5418 5418 5417 5415 5415 5414 5414 5415 5416 5415 5415 5415 5416 5418
5443 5443 5442 5441 5440 5438 5436 5434 5433 5431 5429 5427 5426 5424 5423 5422 5423 5423 5423 5421 5419 5419 5417 5416 5414 5413 5413 5413 5412 5411 5412 5411 5410 5410 5409 5410 5410 5411 5412 5411 5411 5412 5413
5431 5430 5429 5428 5427 5426 5424 5423 5421 5419 5418 5416 5416 5415 5413 5413 5413 5413 5413 5412 5411 5410 5409 5408 5407 5406 5406 5406 5406 5405 5406 5406 5405 5404 5404 5404 5406 5407 5408 5408 5408 5409 5410
5418 5417 5416 5415 5415 5414 5412 5410 5409 5408 5407 5406 5405 5404 5404 5403 5403 5403 5404 5404 5403 5401 5400 5400 5399 5399 5399 5399 5399 5400 5400 5400 5399 5398 5398 5399 5400 5401 5403 5404 5406 5407 5408
5405 5404 5403 5402 5402 5401 5400 5399 5398 5396 5395 5395 5394 5394 5394 5394 5394 5394 5394 5395 5394 5393 5392 5392 5392 5392 5392 5392 5392 5393 5393 5392 5392 5392 5393 5393 5394 5395 5398 5400 5402 5404 5405
5391 5390 5390 5390 5389 5388 5388 5387 5386 5385 5384 5385 5384 5384 5384 5384 5384 5385 5385 5385 5385 5384 5383 5384 5384 5384 5384 5385 5386 5386 5385 5385 5385 5386 5387 5388 5390 5391 5393 5395 5397 5399 5400
5378 5378 5377 5377 5377 5376 5376 5375 5375 5375 5374 5375 5375 5374 5374 5375 5377 5377 5376 5376 5375 5375 5375 5375 5376 5376 5377 5377 5378 5379 5379 5379 5380 5380 5382 5383 5385 5386 5388 5391 5392 5394 5395
5366 5366 5366 5365 5365 5365 5364 5364 5365 5364 5366 5366 5366 5366 5367 5368 5369 5369 5369 5368 5368 5368 5367 5367 5367 5367 5368 5369 5370 5371 5372 5373 5374 5375 5377 5378 5380 5382 5384 5386 5387 5389 5389
5353 5353 5353 5354 5354 5353 5353 5353 5354 5355 5356 5357 5357 5358 5359 5359 5360 5360 5360 5360 5360 5360 5358 5358 5359 5359 5360 5361 5362 5364 5365 5367 5368 5370 5372 5373 5375 5377 5379 5381 5383 5384 5385
5340 5342 5342 5342 5342 5342 5342 5342 5342 5342 5344 5346 5347 5348 5349 5350 5351 5351 5351 5351 5351 5351 5350 5350 5351 5352 5353 5354 5355 5357 5359 5361 5363 5365 5367 5369 5371 5373 5375 5377 5379 5381 5382
5329 5330 5331 5331 5331 5331 5331 5331 5332 5332 5334 5335 5337 5337 5339 5340 5341 5341 5342 5341 5341 5341 5342 5343 5344 5345 5347 5348 5350 5352 5354 5356 5359 5361 5364 5366 5368 5370 5371 5374 5376 5378 5379
5317 5319 5320 5320 5320 5320 5321 5321 5322 5323 5324 5325 5326 5327 5328 5329 5330 5331 5331 5331 5332 5334 5335 5336 5338 5339 5341 5343 5346 5348 5351 5353 5356 5358 5360 5363 5365 5367 5369 5372 5374 5375 5376
5306 5307 5309 5310 5310 5310 5311 5312 5312 5312 5313 5315 5316 5318 5319 5320 5321 5322 5323 5324 5325 5326 5328 5330 5332 5335 5337 5340 5343 5346 5348 5351 5353 5355 5358 5361 5363 5365 5367 5370 5372 5372 5373
5296 5297 5298 5299 5300 5301 5302 5302 5303 5303 5304 5305 5307 5309 5311 5312 5313 5314 5316 5318 5319 5321 5323 5325 5329 5332 5335 5338 5341 5344 5347 5349 5352 5354 5357 5359 5361 5364 5366 5368 5370 5371 5371
5287 5288 5289 5290 5291 5293 5294 5293 5294 5294 5296 5297 5299 5301 5303 5305 5306 5308 5311 5313 5315 5317 5320 5323 5326 5330 5333 5337 5340 5343 5346 5349 5352 5354 5356 5358 5361 5363 5365 5367 5368 5369 5369
5279 5280 5281 5282 5283 5284 5285 5285 5286 5287 5289 5291 5293 5295 5297 5299 5301 5303 5306 5309 5311 5314 5318 5321 5325 5329 5333 5336 5340 5344 5347 5350 5352 5354 5356 5359 5361 5363 5365 5366 5367 5367 5367
5273 5273 5274 5275 5276 5277 5277 5279 5280 5281 5283 5286 5288 5290 5292 5294 5297 5300 5303 5306 5309 5313 5317 5321 5325 5329 5333 5336 5340 5344 5347 5350 5352 5354 5357 5359 5360 5362 5363 5364 5365 5365 5365
5267 5268 5268 5269 5270 5271 5272 5274 5275 5277 5279 5281 5283 5286 5288 5291 5293 5297 5301 5304 5308 5312 5316 5321 5325 5329 5333 5337 5340 5344 5347 5350 5352 5355 5357 5358 5359 5361 5362 5362 5363 5363 5363